Dewpoint
46 48 51 48 46 46 44 40 40 46 50 42 39 33 30 29 24 27 26 28 25 22 27 26 26 25 25 27 29 27 33 33 29 31 35 36 35 32 32 34 27 26 27 28
45 48 49 48 45 45 41 41 42 46 49 38 36 30 23 25 25 26 25 25 28 29 28 24 25 21 27 29 31 32 34 31 29 29 31 34 34 34 30 28 30 25 25 27
45 46 48 49 45 46 42 39 34 38 42 40 29 26 25 24 27 29 31 27 25 27 26 27 24 23 26 30 36 40 38 33 27 23 25 32 32 32 30 25 31 24 26 30
43 45 48 49 45 46 40 37 38 34 33 34 31 28 27 22 24 30 30 28 28 25 25 25 24 25 27 29 34 37 35 31 32 32 32 31 31 31 28 24 24 25 28 31
43 45 47 49 45 47 39 33 39 40 34 34 30 29 25 27 31 30 26 28 28 29 28 26 26 27 27 26 30 36 35 32 31 30 31 31 32 32 33 33 32 32 32 32
42 44 46 49 46 44 37 37 42 41 35 30 28 28 26 29 32 29 28 28 30 31 32 36 36 37 38 38 33 35 34 33 32 29 29 29 27 33 32 33 34 32 28 33
43 43 46 47 47 44 42 43 43 37 31 29 27 29 32 31 30 29 32 29 31 31 36 34 29 28 33 37 38 38 35 33 32 31 30 22 34 37 35 32 32 32 32 34
41 42 43 46 48 47 44 42 37 37 31 32 32 33 34 34 35 34 33 34 33 35 32 23 19 21 20 27 35 35 37 34 31 29 26 32 35 34 33 29 28 31 33 35
41 43 43 46 49 47 45 43 41 38 32 30 33 32 32 30 33 33 34 37 36 31 24 21 19 20 20 24 27 33 34 34 33 29 24 22 29 35 37 36 26 30 35 37
40 42 45 46 49 47 43 40 42 39 35 34 32 31 32 34 32 32 33 34 31 29 23 21 21 25 28 25 28 28 29 32 29 29 26 29 33 37 38 25 27 34 38 39
40 40 43 45 48 47 45 38 42 40 35 35 36 35 31 32 34 29 35 33 32 26 24 24 25 27 28 29 31 30 29 28 27 28 26 25 37 38 30 33 37 39 40 41
40 40 43 45 48 47 45 38 42 43 38 37 39 39 38 34 36 34 33 33 29 29 28 29 30 29 30 29 26 36 30 33 32 30 31 35 39 38 39 41 41 41 42 42
39 40 43 44 48 47 46 42 42 41 39 39 39 38 40 42 41 39 34 34 34 32 35 33 31 29 31 29 30 34 37 38 35 33 37 38 40 41 42 42 42 42 42 40
40 41 44 44 48 47 47 42 41 40 38 36 36 40 39 41 41 39 38 39 38 37 35 33 32 30 33 32 34 35 37 36 34 36 39 40 40 41 42 41 42 40 34 33
40 42 44 44 47 47 47 45 44 41 37 35 36 38 40 40 40 39 39 39 38 35 35 34 33 36 36 37 36 35 38 35 36 35 40 40 40 42 39 38 36 36 35 36
40 42 43 45 47 47 43 39 43 44 42 38 34 38 38 40 40 40 39 39 38 37 36 35 36 37 36 34 32 38 39 40 40 41 41 41 42 42 40 39 39 39 39 39
41 42 43 47 46 45 38 36 41 43 43 38 34 34 37 38 39 39 38 39 38 37 36 35 35 36 36 37 34 38 39 40 40 41 41 41 41 41 42 41 40 41 41 41
42 43 45 46 47 45 41 42 45 43 39 38 34 33 36 38 36 36 38 36 36 36 36 36 35 36 36 34 38 39 40 41 42 42 43 42 41 42 42 43 42 42 42 42
42 44 46 46 43 41 40 44 43 43 40 35 33 32 31 38 36 37 36 36 34 35 34 34 34 32 33 36 38 39 40 41 41 42 40 39 39 41 42 42 42 40 40 40
43 44 42 36 40 43 45 39 38 37 37 37 34 34 34 36 35 34 34 34 33 31 33 34 32 32 36 38 39 40 40 41 42 40 40 37 39 40 40 40 40 36 35 35
42 40 37 39 42 38 35 33 34 33 32 34 34 34 34 37 33 33 33 31 32 29 33 32 31 33 36 38 38 39 40 41 41 40 39 38 40 40 40 39 37 36 35 34
39 40 40 37 33 32 30 28 31 29 27 34 34 35 36 34 35 33 32 31 30 28 33 32 29 33 38 38 38 40 41 40 38 38 39 39 39 39 40 39 38 37 37 38
41 38 31 34 29 22 25 23 28 29 33 34 34 31 33 32 33 31 31 30 30 32 31 30 33 36 38 38 38 39 39 39 38 38 39 39 38 37 37 37 37 37 37 37
34 29 23 27 23 22 25 27 29 32 34 34 30 29 29 29 29 31 29 31 31 29 28 30 32 38 38 38 38 37 37 38 38 38 38 38 38 38 38 38 38 38 37 37
30 29 22 21 26 31 30 33 35 35 35 30 30 30 31 29 29 30 31 29 27 29 29 32 36 38 38 36 36 35 36 37 37 38 38 38 39 38 38 38 38 38 38 38
34 33 31 32 32 33 34 35 35 35 31 29 27 24 24 25 27 25 25 25 22 26 29 33 38 38 37 35 33 34 36 38 39 39 39 38 38 39 40 40 40 40 38 37
34 33 35 34 33 33 34 35 34 33 26 24 24 13 12 27 24 21 25 27 24 29 34 38 39 38 36 34 34 35 37 38 39 40 40 40 40 41 40 39 40 39 38 37
Lifted_Index
10 10 9 9 10 11 13 11 8 7 6 6 6 6 6 5 5 5 5 5 5 5 5 5 5 5 6 7 7 7 6 5 4 4 5 5 4 4 4 3 3 3 2 2
11 10 9 9 10 12 13 10 8 7 6 6 6 6 6 5 5 5 5 5 5 5 5 5 5 6 6 7 7 6 6 5 4 4 4 4 4 4 4 3 3 2 2 2
11 10 9 9 10 12 12 10 8 8 7 6 6 6 6 5 6 6 6 6 6 6 5 5 6 7 7 7 7 6 6 5 4 3 3 4 4 3 3 3 2 2 3 3
12 11 9 9 10 12 12 9 8 8 7 6 6 6 6 5 6 6 6 6 6 6 5 6 6 7 8 7 6 5 5 5 4 3 3 3 3 3 2 2 3 3 3 3
12 11 10 9 10 12 12 9 8 7 7 6 5 6 5 5 6 6 6 6 6 6 6 7 7 8 8 7 5 4 4 3 3 2 2 2 2 2 3 3 3 4 3 3
12 11 10 9 10 12 12 10 7 7 6 6 5 5 5 5 6 6 7 7 7 8 8 8 9 9 8 7 5 4 3 2 1 1 1 2 2 3 3 4 4 4 4 3
13 12 11 10 10 12 12 10 7 6 6 6 5 4 5 5 6 7 8 8 9 9 9 9 9 9 8 7 5 3 1 1 1 0 1 1 2 3 3 4 4 4 4 3
14 13 11 10 10 11 12 10 8 6 6 5 5 4 5 6 7 7 8 9 10 10 10 9 8 8 8 6 4 2 1 1 0 0 0 1 2 3 3 4 4 4 3 3
14 13 12 10 10 11 12 12 11 8 6 6 5 5 6 7 7 8 9 10 10 9 9 7 6 6 6 5 4 3 2 1 1 1 1 1 2 3 3 3 3 4 4 3
14 14 12 11 10 10 12 13 12 8 6 6 6 6 7 7 7 8 8 9 9 8 7 6 5 5 6 5 4 3 3 2 2 1 1 2 2 3 3 3 4 4 4 3
15 14 13 11 10 10 12 13 11 8 7 7 7 7 8 8 8 8 8 8 8 8 6 5 5 6 6 5 4 4 3 3 2 2 2 3 3 4 4 4 4 4 4 3
15 14 12 10 9 10 12 12 10 8 8 8 8 9 9 9 9 9 8 9 9 8 7 6 6 6 6 5 5 4 4 4 3 3 3 4 4 4 4 4 4 4 4 4
15 14 12 10 9 10 11 11 9 9 8 8 9 9 9 9 9 9 9 9 9 9 8 7 6 6 6 5 5 5 5 5 5 4 4 4 4 4 4 4 4 4 4 4
15 14 12 10 9 10 11 10 8 8 8 8 9 9 9 9 9 9 9 9 9 9 8 7 6 6 6 6 5 5 6 6 5 5 4 4 4 4 4 4 4 4 5 5
14 13 11 9 9 10 10 9 8 8 8 8 9 9 9 9 9 9 9 9 9 8 8 7 6 6 6 6 5 5 6 6 5 5 4 4 4 4 4 4 4 5 5 5
14 12 10 9 9 10 9 8 8 8 8 8 8 9 9 9 9 9 9 9 8 8 7 7 6 6 6 5 5 6 6 6 5 5 5 5 5 4 4 4 4 5 5 5
13 11 9 9 9 10 9 8 8 8 8 8 8 9 9 9 9 9 9 8 8 7 7 6 6 6 6 5 5 6 6 5 5 5 5 5 5 4 4 4 4 5 5 5
11 10 9 9 9 9 8 8 8 8 8 8 8 8 9 9 9 9 9 8 8 7 6 6 6 6 5 5 6 6 6 6 5 5 5 5 5 4 4 4 4 5 5 5
10 10 9 8 8 8 7 7 7 8 8 8 8 8 8 9 9 9 9 8 8 7 6 6 6 6 6 6 6 6 6 6 6 6 5 5 5 5 5 5 5 5 5 5
10 9 8 7 7 7 7 7 7 8 8 8 8 8 8 8 8 8 8 8 8 7 7 7 6 6 7 7 7 7 7 7 6 6 6 5 5 5 5 5 5 6 6 6
9 8 6 6 6 6 7 7 7 8 8 8 8 9 9 8 8 8 8 8 7 7 7 7 6 6 7 7 7 7 7 7 6 6 6 6 6 6 6 6 7 7 8 8
8 6 5 5 6 6 6 7 7 8 8 8 8 8 9 8 8 8 8 8 7 7 7 6 6 6 7 7 7 7 7 7 6 6 6 6 7 7 7 7 8 8 8 8
6 5 5 5 6 6 6 6 7 7 7 8 8 8 8 8 8 8 8 7 7 6 6 5 6 6 7 7 7 7 7 7 7 7 7 7 8 8 8 8 8 8 8 8
4 4 4 5 6 6 7 7 7 7 7 8 8 8 8 8 8 8 7 6 6 5 4 4 5 6 7 7 7 7 7 7 7 8 8 8 8 8 8 8 8 8 9 9
4 4 5 5 6 7 7 7 7 7 7 8 8 8 8 8 7 7 6 5 4 3 3 4 6 6 7 7 7 7 7 8 8 8 8 7 7 7 8 8 8 8 8 8
4 4 5 6 7 7 7 7 7 7 7 7 7 7 7 7 6 5 4 3 3 3 4 5 6 6 7 7 7 7 8 8 8 8 7 7 7 7 7 7 7 7 8 8
4 5 6 6 7 7 7 6 6 7 7 7 7 6 6 6 5 4 4 3 3 4 5 6 6 7 7 7 7 7 8 8 8 8 7 7 7 7 7 6 6 7 7 8